Weather History for Los Angeles, CA

Change the Weather History Date:

Thursday, July 4, 2013

  Actual Average Record
Temperature  
Mean Temperature 69 °F 68 °F  
Max Temperature 74 °F 73 °F 96 °F (1981)
Min Temperature 64 °F 63 °F 54 °F (1948)
Degree Days  
Heating Degree Days 0 0  
Month to date heating degree days 0 0  
Since 1 June heating degree days 0 25  
Since 1 July heating degree days 0 0  
Cooling Degree Days 4 3  
Month to date cooling degree days 24 12  
Year to date cooling degree days 198 94  
Since 1 June cooling degree days 117 54  
Growing Degree Days 18 (Base 50)    
Moisture  
Dew Point 61 °F    
Average Humidity 79    
Maximum Humidity 93    
Minimum Humidity 64    
Precipitation  
Precipitation 0.00 in 0.00 in 0.07 in (1898)
Month to date precipitation 0.00 0.00  
Year to date precipitation 2.61 8.81  
Since 1 July precipitation 0.00 0.00  
Sea Level Pressure  
Sea Level Pressure 29.81 in    
Wind  
Wind Speed 7 mph (WSW)    
Max Wind Speed 15 mph    
Max Gust Speed 21 mph    
Visibility 8 miles    
Events Fog    
T = Trace of Precipitation, MM = Missing Value Source: NWS Daily Summary

Daily Weather History Graph

Daily Weather History Graph

Search for Another Location

Airport:

Trip Planner

Search our weather history database for the weather conditions in past years. The results will help you decide how hot, cold, wet, or windy it might be!

Date:

Astronomy

Jul. 04, 2013 Rise Set
Actual Time 5:47 AM PDT 8:08 PM PDT
Civil Twilight 5:18 AM PDT 8:37 PM PDT
Nautical Twilight 4:43 AM PDT 9:12 PM PDT
Astronomical Twilight 4:04 AM PDT 9:51 PM PDT
Moon 3:04 AM PDT (7/4) 5:19 PM PDT (7/4)
Length of Visible Light 15h 18m
Length of Day
14h 20m
Waning Crescent, 11% of the Moon is Illuminated
Jul 4
Waning Crescent
Jul 8
New
Jul 15
First Quarter
Jul 22
Full
Jul 29
Last Quarter

Hourly Weather History & Observations

Time (PDT) Temp. Dew Point Humidity Pressure Visibility Wind Dir Wind Speed Gust Speed Precip Events Conditions
12:53 AM 66.0 °F 62.1 °F 87% 29.83 in 10.0 mi West 5.8 mph - N/A   Mostly Cloudy
1:53 AM 66.0 °F 62.1 °F 87% 29.83 in 10.0 mi West 6.9 mph - N/A   Mostly Cloudy
2:53 AM 66.0 °F 62.1 °F 87% 29.82 in 9.0 mi West 4.6 mph - N/A   Overcast
3:53 AM 64.9 °F 62.1 °F 90% 29.80 in 9.0 mi Calm Calm - N/A   Overcast
4:53 AM 66.2 °F 62.6 °F 88% 29.80 in 5.0 mi WSW 3.5 mph - N/A Fog Patches of Fog
5:53 AM 66.0 °F 62.1 °F 87% 29.80 in 3.0 mi Calm Calm - N/A Fog Patches of Fog
6:53 AM 66.9 °F 62.1 °F 84% 29.81 in 3.0 mi Calm Calm - N/A Fog Patches of Fog
7:38 AM 68.0 °F 62.6 °F 83% 29.82 in 3.0 mi Calm Calm - N/A Fog Patches of Fog
7:53 AM 69.1 °F 62.1 °F 78% 29.82 in 3.0 mi Calm Calm - N/A Fog Patches of Fog
8:53 AM 69.8 °F 62.6 °F 78% 29.84 in 4.0 mi Calm Calm - N/A Fog Patches of Fog
9:18 AM 71.6 °F 62.6 °F 73% 29.84 in 5.0 mi West 6.9 mph - N/A   Mostly Cloudy
9:53 AM 71.6 °F 62.6 °F 73% 29.83 in 5.0 mi West 6.9 mph - N/A   Scattered Clouds
10:53 AM 71.1 °F 61.0 °F 70% 29.83 in 6.0 mi West 6.9 mph - N/A   Haze
11:53 AM 72.0 °F 61.0 °F 68% 29.83 in 7.0 mi West 10.4 mph - N/A   Scattered Clouds
12:53 PM 73.0 °F 61.0 °F 66% 29.83 in 8.0 mi West 10.4 mph - N/A   Scattered Clouds
1:39 PM 71.6 °F 60.8 °F 69% 29.82 in 8.0 mi WSW 13.8 mph - N/A   Scattered Clouds
1:53 PM 71.1 °F 61.0 °F 70% 29.81 in 8.0 mi WSW 11.5 mph - N/A   Scattered Clouds
2:53 PM 73.0 °F 61.0 °F 66% 29.80 in 8.0 mi WSW 12.7 mph - N/A   Scattered Clouds
3:53 PM 72.0 °F 61.0 °F 68% 29.78 in 10.0 mi West 12.7 mph - N/A   Scattered Clouds
4:53 PM 71.1 °F 61.0 °F 70% 29.77 in 10.0 mi WSW 12.7 mph - N/A   Scattered Clouds
5:53 PM 70.0 °F 61.0 °F 73% 29.77 in 10.0 mi West 12.7 mph - N/A   Scattered Clouds
6:53 PM 66.9 °F 61.0 °F 81% 29.78 in 10.0 mi WSW 12.7 mph - N/A   Scattered Clouds
7:26 PM 66.2 °F 60.8 °F 83% 29.80 in 10.0 mi WSW 11.5 mph - N/A   Mostly Cloudy
7:53 PM 66.0 °F 61.0 °F 84% 29.80 in 10.0 mi WSW 10.4 mph - N/A   Overcast
8:17 PM 66.2 °F 60.8 °F 83% 29.81 in 10.0 mi WSW 10.4 mph - N/A   Overcast
8:53 PM 64.9 °F 60.1 °F 84% 29.83 in 9.0 mi WSW 9.2 mph - N/A   Overcast
9:53 PM 64.9 °F 60.1 °F 84% 29.84 in 10.0 mi West 6.9 mph - N/A   Overcast
10:53 PM 64.9 °F 60.1 °F 84% 29.84 in 10.0 mi West 4.6 mph - N/A   Overcast
11:53 PM 64.9 °F 60.1 °F 84% 29.84 in 10.0 mi WSW 4.6 mph - N/A   Overcast